Regional Weather Roundup
Issued by NWS Midland/Odessa, TX

Skip options and go directly to product.
Home | Oldest Version | Next Version | Current Version | All | Text Only | Save Text | Print | Product List | Glossary On

Skip product version selection by date and time.   
307
ASUS44 KMAF 072110
RWRMAF
MIDLAND AREA WEATHER ROUNDUP
NATIONAL WEATHER SERVICE MIDLAND TX
300 PM CST WED DEC 07 2016

...IN SOUTHWEST TEXAS AND SOUTHEAST NEW MEXICO...

CITY           SKY/WX    TMP DP  RH WIND       PRES   REMARKS
ALPINE         CLOUDY    68  28  22 W15       30.05S
ANDREWS        FAIR      43  39  85 NE9       30.02R WCI  38
ARTESIA        CLOUDY    45  36  70 CALM      29.98S
BIG SPRING     CLOUDY    45  42  88 N8        30.05R
CARLSBAD       CLOUDY    47  38  71 NW12      29.96R
DRYDEN           N/A     56  46  69 E6        29.96S
FORT STOCKTON  CLOUDY    55  43  63 CALM      29.98R
GUAD PASS      CLOUDY    52  33  48 W31       30.00R
HOBBS          SUNNY     46  39  76 NE7       30.00S
MARFA          CLOUDY    63  26  24 W15G21    30.02F
MIDLAND AIRPK  CLOUDY    46  41  82 NE7       30.02R
MIDLAND INTL   CLOUDY    47  40  76 NE9       30.00R
ODESSA         CLOUDY    47  40  76 NE12      30.00R
PECOS          CLOUDY    46  40  82 SE5       29.98S
PRESIDIO       FAIR      71  34  25 CALM      29.94S
SEMINOLE       CLOUDY    44  38  78 CALM      30.02S
SNYDER         CLOUDY    41  38  87 NE9       30.06R WCI  36
WINK           CLOUDY    49  40  71 NE3       29.97R
$$
...OTHER STATIONS IN TEXAS...

CITY           SKY/WX    TMP DP  RH WIND       PRES   REMARKS
ABILENE        CLOUDY    44  41  89 N9        30.08R WCI  39
AMARILLO       CLOUDY    32  21  64 N16       30.13R WCI  21
AUSTIN         CLOUDY    54  47  77 N5        30.04S
BROWNSVILLE    PTSUNNY   79  68  69 SE13      29.92F
CORPUS CHRISTI CLOUDY    63  58  83 NE10      29.97S
DALLAS FTW     CLOUDY    51  40  65 N6        30.08S
DEL RIO        CLOUDY    51  47  86 CALM      30.01R
EL PASO        CLOUDY    57  32  38 W9        29.99S
HOUSTON INT    CLOUDY    56  51  84 NE7       30.05S HAZE
LUBBOCK        CLOUDY    40  33  76 N15       30.04R WCI  32
SAN ANGELO     CLOUDY    50  44  80 SE5       30.02R
SAN ANTONIO    CLOUDY    57  47  69 N6        30.01F
WACO           CLOUDY    54  45  71 NE5       30.05S
WICHITA FALLS  NOT AVBL
$$
...OTHER LOCATIONS IN NEW MEXICO...

CITY           SKY/WX    TMP DP  RH WIND       PRES   REMARKS
ALAMAGORDO     NOT AVBL
ALBUQUERQUE    PTSUNNY   44  20  38 N12       30.04R WCI  38
CANNON AFB     CLOUDY    42  19  38 NE23      30.02R WCI  33
CLOVIS         CLOUDY    41  16  36 NE23      30.04R WCI  31
HOLLOMAN AFB   SUNNY     60  25  26 SW8       30.00S
ROSWELL        CLOUDY    54  33  45 E6        29.96S
RUIDOSO        SUNNY     54  16  22 NW9       30.01R
SANTA FE       SUNNY     42  18  37 W20G25    30.01R WCI  33
TRUTH OR CONSE MOSUNNY   57  22  25 SE5       29.96S
TUCUMCARI      SUNNY     41  13  31 E20       30.06R WCI  32
$$

  • National Weather Service
  • Southern Region Headquarters
  • 819 Taylor Street, Room 10A06
  • Fort Worth, TX 76102
  • Page Author: NWS Fort Worth
  • Web Master: SR-SRH.Webmaster@noaa.gov
  •  
  • Page last modified: 30-Sep-2016 6:36 PM UTC
USA.gov is the U.S. government's official web portal to all federal, state and local government web resources and services.